sat.trackr.live / text

‹ back to catalog

IRIDIUM 150

NORAD 43257 · 2018-030J

PAYLOAD ACTIVE UNKNOWN

§ Identity

Operator
Country
US
Launch date
2018-03-30
Launch site
AFWTR
Launch vehicle
Mass (kg)
RCS (m²)

Purposes: comms

External: N2YO · Heavens-Above · Gunter

§ Orbital elements

Epoch: 2026-09-19T23:07:31.223712Z

Period
100.40 min
Inclination
86.3917°
Eccentricity
0.0002229
Mean motion
14.34217526 rev/d
Perigee alt
776.1 km
Apogee alt
779.3 km
Semi-major
7,155.8 km
B*
3.8728e-6
RAAN
250.8197°
Arg perigee
87.1232°
Mean anomaly
273.0219°
Rev number
44,374

§ Raw data

IRIDIUM 1501 43257U 18030J   26262.96355583  .00000031  00000+0  38728-5 0  99912 43257  86.3917 250.8197 0002229  87.1232 273.0219 14.34217526443748

JSON: /api/v1/satellites/43257 · /tle

For live sub-satellite position, see the globe view (requires WebGL).

§ Visibility from observer

Set your observer location to see the next 7 days of passes ≥ 10°. The values pass through the URL so the page stays shareable.

No JS? Fill the form by hand. The geolocation button needs JavaScript.